Conroe, TX

3:57 PM CDT on March 23, 2017 (GMT -0500)
Montgomery County

Weather History for KCXO - July, 2013

Change the Weather History Date:

Tuesday, July 9, 2013

  Actual Average Record
Temperature  
Mean Temperature 82 °F -  
Max Temperature 97 °F 91 °F 100 °F (1998)
Min Temperature 68 °F 70 °F 68 °F (2013)
Cooling Degree Days 16    
Growing Degree Days 32 (Base 50)    
Moisture  
Dew Point 70 °F    
Average Humidity 79    
Maximum Humidity 100    
Minimum Humidity 41    
Precipitation  
Precipitation 0.00 in - - ()
Sea Level Pressure  
Sea Level Pressure 30.11 in    
Wind  
Wind Speed 2 mph (SSE)    
Max Wind Speed 14 mph    
Max Gust Speed 20 mph    
Visibility 7 miles    
Events Fog    
Averages and records for this station are not official NWS values.
T = Trace of Precipitation, MM = Missing Value Source: NWS Daily Summary

Daily Weather History Graph

Daily Weather History Graph

Search for Another Location

Airport or City:

Trip Planner

Search our weather history database for the weather conditions in past years. The results will help you decide how hot, cold, wet, or windy it might be!

Date:

Astronomy

Jul. 09, 2013 Rise Set
Actual Time 6:27 AM CDT 8:26 PM CDT
Civil Twilight 5:59 AM CDT 8:53 PM CDT
Nautical Twilight 5:26 AM CDT 9:26 PM CDT
Astronomical Twilight 4:51 AM CDT 10:02 PM CDT
Moon 7:43 AM CDT (7/9) 9:15 PM CDT (7/9)
Length of Visible Light 14h 54m
Length of Day
13h 59m
New Moon, 2% of the Moon is Illuminated
Jul 9
New Moon
Jul 15
First Quarter
Jul 22
Full
Jul 29
Last Quarter
Aug 6
New

Hourly Weather History & Observations

Time (CDT) Temp. Heat Index Dew Point Humidity Pressure Visibility Wind Dir Wind Speed Gust Speed Precip Events Conditions
12:53 AM 72.0 °F - 71.1 °F 97% 30.12 in 10.0 mi Calm Calm - N/A   Clear
1:53 AM 70.0 °F - 69.1 °F 97% 30.11 in 8.0 mi Calm Calm - N/A   Clear
2:53 AM 69.1 °F - 69.1 °F 100% 30.11 in 9.0 mi Calm Calm - N/A   Clear
3:53 AM 69.1 °F - 68.0 °F 96% 30.11 in 7.0 mi Calm Calm - N/A   Clear
4:20 AM 69.8 °F - 68.0 °F 94% 30.12 in 10.0 mi Calm Calm - N/A   Mostly Cloudy
4:29 AM 69.8 °F - 68.0 °F 94% 30.12 in 8.0 mi Calm Calm - N/A   Overcast
4:48 AM 69.8 °F - 68.0 °F 94% 30.12 in 1.5 mi Calm Calm - N/A   Overcast
4:53 AM 68.0 °F - 68.0 °F 100% 30.11 in 0.5 mi Calm Calm - N/A Fog Fog
5:02 AM 68.0 °F - 68.0 °F 100% 30.12 in 2.5 mi Calm Calm - N/A   Overcast
5:09 AM 68.0 °F - 68.0 °F 100% 30.12 in 8.0 mi Calm Calm - N/A   Overcast
5:53 AM 68.0 °F - 66.9 °F 96% 30.12 in 4.0 mi Calm Calm - N/A   Overcast
6:00 AM 68.0 °F - 68.0 °F 100% 30.13 in 8.0 mi Calm Calm - N/A   Overcast
6:19 AM 69.8 °F - 68.0 °F 94% 30.13 in 1.8 mi Calm Calm - N/A   Overcast
6:33 AM 68.0 °F - 68.0 °F 100% 30.14 in 0.5 mi Calm Calm - N/A Fog Fog
6:48 AM 69.8 °F - 69.8 °F 100% 30.14 in 0.2 mi Calm Calm - N/A Fog Fog
6:53 AM 69.1 °F - 69.1 °F 100% 30.13 in 0.2 mi Calm Calm - N/A Fog Fog
7:15 AM 69.8 °F - 69.8 °F 100% 30.15 in 0.5 mi Calm Calm - N/A Fog Fog
7:26 AM 69.8 °F - 69.8 °F 100% 30.15 in 2.0 mi Calm Calm - N/A   Overcast
7:53 AM 73.0 °F - 73.0 °F 100% 30.15 in 2.0 mi Calm Calm - N/A   Mostly Cloudy
8:04 AM 75.2 °F - 73.4 °F 94% 30.16 in 3.0 mi Calm Calm - N/A   Partly Cloudy
8:53 AM 80.1 °F 85.4 °F 75.9 °F 87% 30.16 in 10.0 mi SSE 3.5 mph - N/A   Clear
9:53 AM 86.0 °F 95.1 °F 75.0 °F 70% 30.16 in 10.0 mi South 8.1 mph - N/A   Scattered Clouds
10:29 AM 87.8 °F 97.6 °F 75.2 °F 66% 30.17 in 10.0 mi SSE 5.8 mph - N/A   Mostly Cloudy
10:46 AM 87.8 °F 95.6 °F 73.4 °F 62% 30.16 in 10.0 mi South 8.1 mph - N/A   Scattered Clouds
10:53 AM 88.0 °F 95.6 °F 73.0 °F 61% 30.15 in 10.0 mi Variable 6.9 mph - N/A   Scattered Clouds
11:53 AM 90.0 °F 96.9 °F 72.0 °F 55% 30.14 in 10.0 mi SSE 6.9 mph - N/A   Partly Cloudy
12:53 PM 91.9 °F 98.4 °F 71.1 °F 50% 30.12 in 10.0 mi SSW 4.6 mph - N/A   Scattered Clouds
1:53 PM 93.9 °F 100.3 °F 70.0 °F 46% 30.10 in 10.0 mi South 5.8 mph - N/A   Scattered Clouds
2:53 PM 95.0 °F 99.5 °F 68.0 °F 41% 30.08 in 10.0 mi Calm Calm - N/A   Partly Cloudy
3:53 PM 95.0 °F 99.5 °F 68.0 °F 41% 30.06 in 10.0 mi SE 9.2 mph - N/A   Clear
4:53 PM 93.0 °F 99.0 °F 70.0 °F 47% 30.04 in 10.0 mi SSE 12.7 mph - N/A   Clear
5:30 PM 91.4 °F 98.4 °F 71.6 °F 52% 30.06 in 10.0 mi South 13.8 mph - N/A   Scattered Clouds
5:53 PM 93.0 °F 100.1 °F 71.1 °F 49% 30.04 in 10.0 mi SSE 13.8 mph 19.6 mph N/A   Partly Cloudy
6:53 PM 91.0 °F 95.6 °F 69.1 °F 48% 30.04 in 10.0 mi SSE 11.5 mph - N/A   Clear
7:53 PM 87.1 °F 91.3 °F 69.1 °F 55% 30.04 in 10.0 mi SSE 12.7 mph 16.1 mph N/A   Clear
8:53 PM 82.9 °F 87.5 °F 71.1 °F 67% 30.04 in 10.0 mi SE 6.9 mph - N/A   Clear
9:53 PM 81.0 °F 85.8 °F 73.0 °F 77% 30.05 in 10.0 mi SE 9.2 mph - N/A   Clear
10:53 PM 80.1 °F 84.5 °F 73.9 °F 81% 30.06 in 10.0 mi SSE 6.9 mph - N/A   Clear
11:53 PM 78.1 °F - 73.9 °F 87% 30.07 in 10.0 mi SSE 5.8 mph - N/A   Clear